When you browse on this site, cookies collect data to enhance your experience and personalize the content and advertising you see.
Visit our Privacy Policy to learn more. By continuing to use the site, you agree to this use of cookies and data.
  • In Hungary
  • List of Countries
  • For 7 days
  • Water Temperature
  • Satellite Maps
  • Weather Map
  • News
  • Weather Widgets
  • user-avatar
    Login

    Hourly Weather Mardan

    Today, 18 January, Friday

    Time Temperature Precipitation Wind Pressure Humidity
    00:00 +12°C° 0 mm 1 mps 736 mmHg 26%
    01:00 +12°C° 0 mm 1 mps 736 mmHg 26%
    02:00 +11°C° 0 mm 1 mps 736 mmHg 27%
    03:00 +11°C° 0 mm 1 mps 736 mmHg 26%
    04:00 +11°C° 0 mm 1 mps 736 mmHg 26%
    05:00 +10°C° 0 mm 1 mps 736 mmHg 26%
    06:00 +11°C° 0 mm 1 mps 736 mmHg 25%
    07:00 +11°C° 0 mm 1 mps 736 mmHg 25%
    08:00 +11°C° 0 mm 1 mps 736 mmHg 24%
    09:00 +13°C° 0 mm 1 mps 737 mmHg 22%
    10:00 +15°C° 0 mm 1 mps 737 mmHg 20%
    11:00 +15°C° 0 mm 0 mps 737 mmHg 17%
    12:00 +18°C° 0 mm 1 mps 737 mmHg 17%
    13:00 +18°C° 0 mm 2 mps 737 mmHg 17%
    14:00 +18°C° 0 mm 3 mps 737 mmHg 17%
    15:00 +17°C° 0 mm 2 mps 736 mmHg 20%
    16:00 +17°C° 0 mm 2 mps 736 mmHg 23%
    17:00 +16°C° 0 mm 2 mps 736 mmHg 26%
    18:00 +15°C° 0 mm 2 mps 737 mmHg 28%
    19:00 +14°C° 0 mm 2 mps 737 mmHg 29%
    20:00 +13°C° 0 mm 2 mps 737 mmHg 31%
    21:00 +13°C° 0 mm 2 mps 737 mmHg 32%
    22:00 +13°C° 0 mm 2 mps 737 mmHg 33%
    23:00 +12°C° 0 mm 1 mps 737 mmHg 34%

    Tomorrow, 19 January, Saturday

    Time Temperature Precipitation Wind Pressure Humidity
    00:00 +12°C° 0 mm 1 mps 737 mmHg 34%
    01:00 +12°C° 0 mm 1 mps 737 mmHg 34%
    02:00 +12°C° 0 mm 1 mps 737 mmHg 34%
    03:00 +12°C° 0 mm 1 mps 737 mmHg 35%
    04:00 +12°C° 0 mm 1 mps 737 mmHg 35%
    05:00 +13°C° 0 mm 2 mps 736 mmHg 35%
    06:00 +13°C° 0 mm 2 mps 737 mmHg 36%
    07:00 +13°C° 0 mm 2 mps 737 mmHg 38%
    08:00 +13°C° 0 mm 2 mps 737 mmHg 39%
    09:00 +14°C° 0 mm 2 mps 738 mmHg 38%
    10:00 +15°C° 0 mm 2 mps 738 mmHg 37%
    11:00 +16°C° 0 mm 2 mps 739 mmHg 36%
    12:00 +17°C° 0 mm 2 mps 738 mmHg 36%
    13:00 +17°C° 0 mm 2 mps 738 mmHg 35%
    14:00 +18°C° 0 mm 2 mps 737 mmHg 35%
    15:00 +18°C° 0 mm 2 mps 737 mmHg 37%
    16:00 +17°C° 0 mm 2 mps 737 mmHg 39%
    17:00 +17°C° 0 mm 2 mps 737 mmHg 41%
    18:00 +16°C° 0 mm 2 mps 737 mmHg 43%
    19:00 +15°C° 0 mm 2 mps 738 mmHg 44%
    20:00 +15°C° 0 mm 2 mps 738 mmHg 45%
    21:00 +14°C° 0 mm 2 mps 738 mmHg 46%
    22:00 +14°C° 0 mm 2 mps 738 mmHg 47%
    23:00 +14°C° 0 mm 2 mps 738 mmHg 48%

    Day after tomorrow, 20 January, Sunday

    Time Temperature Precipitation Wind Pressure Humidity
    00:00 +14°C° 0 mm 2 mps 738 mmHg 48%
    01:00 +14°C° 0 mm 2 mps 738 mmHg 49%
    02:00 +14°C° 0 mm 2 mps 738 mmHg 49%
    03:00 +13°C° 0 mm 2 mps 737 mmHg 50%
    04:00 +13°C° 0 mm 2 mps 737 mmHg 52%
    05:00 +12°C° 0 mm 2 mps 736 mmHg 53%
    06:00 +12°C° 0 mm 2 mps 737 mmHg 53%
    07:00 +12°C° 0 mm 2 mps 737 mmHg 53%
    08:00 +12°C° 0 mm 1 mps 737 mmHg 52%
    09:00 +14°C° 0 mm 1 mps 738 mmHg 49%
    10:00 +15°C° 0 mm 2 mps 738 mmHg 46%
    11:00 +16°C° 0 mm 2 mps 738 mmHg 43%
    12:00 +15°C° 0.6 mm 1 mps 738 mmHg 50%
    13:00 +14°C° 0.6 mm 1 mps 737 mmHg 57%
    14:00 +14°C° 0.6 mm 1 mps 737 mmHg 64%
    15:00 +14°C° 0.1 mm 1 mps 736 mmHg 65%
    16:00 +14°C° 0.1 mm 2 mps 736 mmHg 65%
    17:00 +14°C° 0.1 mm 2 mps 736 mmHg 66%
    18:00 +13°C° 0 mm 2 mps 736 mmHg 67%
    19:00 +13°C° 0 mm 2 mps 736 mmHg 69%
    20:00 +12°C° 0 mm 2 mps 736 mmHg 70%
    21:00 +12°C° 0.1 mm 2 mps 736 mmHg 70%
    22:00 +12°C° 0.1 mm 2 mps 736 mmHg 71%
    23:00 +11°C° 0.1 mm 1 mps 736 mmHg 72%

    21 January, Monday

    Time Temperature Precipitation Wind Pressure Humidity
    00:00 +11°C° 0.3 mm 1 mps 736 mmHg 72%
    01:00 +12°C° 0.3 mm 1 mps 735 mmHg 72%
    02:00 +12°C° 0.3 mm 1 mps 735 mmHg 72%
    03:00 +12°C° 0.3 mm 2 mps 735 mmHg 73%
    04:00 +10°C° 0.3 mm 2 mps 735 mmHg 74%
    05:00 +10°C° 0.3 mm 2 mps 735 mmHg 74%
    06:00 +10°C° 0.3 mm 2 mps 735 mmHg 74%
    07:00 +10°C° 0.3 mm 2 mps 735 mmHg 75%
    08:00 +10°C° 0.3 mm 2 mps 735 mmHg 75%
    09:00 +12°C° 0.1 mm 2 mps 735 mmHg 70%
    10:00 +13°C° 0.1 mm 2 mps 735 mmHg 64%
    11:00 +14°C° 0.1 mm 2 mps 735 mmHg 59%
    12:00 +15°C° 0.1 mm 2 mps 735 mmHg 57%
    13:00 +15°C° 0.1 mm 2 mps 734 mmHg 54%
    14:00 +16°C° 0.1 mm 2 mps 734 mmHg 52%
    15:00 +16°C° 0.1 mm 2 mps 734 mmHg 54%
    16:00 +15°C° 0.1 mm 2 mps 733 mmHg 57%
    17:00 +15°C° 0.1 mm 1 mps 733 mmHg 59%
    18:00 +14°C° 0 mm 1 mps 734 mmHg 59%
    19:00 +14°C° 0 mm 1 mps 734 mmHg 60%
    20:00 +13°C° 0 mm 1 mps 734 mmHg 61%
    21:00 +13°C° 0 mm 1 mps 734 mmHg 60%
    22:00 +12°C° 0 mm 1 mps 734 mmHg 59%
    23:00 +12°C° 0 mm 2 mps 734 mmHg 57%

    22 January, Tuesday

    Time Temperature Precipitation Wind Pressure Humidity
    00:00 +12°C° 0 mm 2 mps 734 mmHg 56%
    01:00 +10°C° 0 mm 2 mps 733 mmHg 55%
    02:00 +10°C° 0 mm 2 mps 733 mmHg 54%
    03:00 +9°C° 0 mm 2 mps 732 mmHg 53%
    04:00 +9°C° 0 mm 2 mps 732 mmHg 52%
    05:00 +8°C° 0 mm 2 mps 732 mmHg 51%
    06:00 +8°C° 0 mm 2 mps 732 mmHg 49%
    07:00 +8°C° 0 mm 2 mps 732 mmHg 47%
    08:00 +9°C° 0 mm 2 mps 732 mmHg 46%
    09:00 +11°C° 0 mm 1 mps 733 mmHg 41%
    10:00 +12°C° 0 mm 1 mps 733 mmHg 37%
    11:00 +13°C° 0 mm 1 mps 733 mmHg 33%
    12:00 +14°C° 0 mm 1 mps 733 mmHg 33%
    13:00 +14°C° 0 mm 1 mps 733 mmHg 34%
    14:00 +14°C° 0 mm 1 mps 732 mmHg 34%
    15:00 +14°C° 0 mm 1 mps 733 mmHg 39%
    16:00 +13°C° 0 mm 1 mps 733 mmHg 43%
    17:00 +13°C° 0 mm 1 mps 734 mmHg 48%
    18:00 +12°C° 0 mm 1 mps 735 mmHg 52%
    19:00 +11°C° 0 mm 1 mps 736 mmHg 57%
    20:00 +9°C° 0 mm 0 mps 736 mmHg 61%
    21:00 +9°C° 0 mm 0 mps 737 mmHg 61%
    22:00 +9°C° 0 mm 1 mps 738 mmHg 61%
    23:00 +9°C° 0 mm 1 mps 738 mmHg 61%

    23 January, Wednesday

    Time Temperature Precipitation Wind Pressure Humidity
    00:00 +9°C° 0 mm 1 mps 738 mmHg 59%
    01:00 +9°C° 0 mm 1 mps 738 mmHg 57%
    02:00 +9°C° 0 mm 1 mps 738 mmHg 55%
    03:00 +9°C° 0 mm 1 mps 738 mmHg 53%
    04:00 +9°C° 0 mm 1 mps 738 mmHg 52%
    05:00 +9°C° 0 mm 1 mps 738 mmHg 50%
    06:00 +9°C° 0.1 mm 1 mps 738 mmHg 51%
    07:00 +9°C° 0.1 mm 1 mps 739 mmHg 51%
    08:00 +10°C° 0.1 mm 1 mps 739 mmHg 52%
    09:00 +10°C° 0.4 mm 1 mps 739 mmHg 52%
    10:00 +9°C° 0.4 mm 2 mps 739 mmHg 53%
    11:00 +9°C° 0.4 mm 2 mps 740 mmHg 54%
    12:00 +9°C° 0.5 mm 2 mps 739 mmHg 55%
    13:00 +9°C° 0.5 mm 3 mps 739 mmHg 56%
    14:00 +10°C° 0.5 mm 3 mps 738 mmHg 57%
    15:00 +10°C° 0.1 mm 3 mps 738 mmHg 58%
    16:00 +10°C° 0.1 mm 3 mps 738 mmHg 59%
    17:00 +10°C° 0.1 mm 3 mps 738 mmHg 60%
    18:00 +9°C° 0 mm 3 mps 738 mmHg 61%
    19:00 +9°C° 0 mm 3 mps 738 mmHg 63%
    20:00 +8°C° 0 mm 2 mps 739 mmHg 64%
    21:00 +8°C° 0 mm 2 mps 739 mmHg 63%
    22:00 +8°C° 0 mm 2 mps 739 mmHg 61%
    23:00 +8°C° 0 mm 2 mps 739 mmHg 60%
    Show more